CCA1501 ZBAA-ZSSS

Flight info

Callsign CCA1501
Flight time N/A
Altitude 38100
Route ELKUR9Z ELKUR W40 DOXAB/K0893S1130 W40 YQG/K0895S1160 W142 DALIM/K0896S1130 A593 DPX A470 DALNU W166 ZJ W167 SASAN R343 PK
Aircraft B77W/H-SDE1E2E3FGHIJ2J3J4J5M1RWXY/LB1D1

Departure

Time 2026-05-04 13:57
Airport Beijing Capital International Airport (ZBAA)

Arrival

Time N/A
Airport Shanghai Hongqiao International Airport (ZSSS)
Time Latitude Longitude Altitude Speed Heading
2026-05-04 13:53 40.07173 116.60377 129 ft 24 kts 353°
2026-05-04 13:54 40.07330 116.60229 129 ft 19 kts 263°
2026-05-04 13:54 40.07313 116.60048 129 ft 19 kts 264°
2026-05-04 13:54 40.07603 116.59927 129 ft 29 kts 353°
2026-05-04 13:55 40.07805 116.59895 129 ft 25 kts 353°
2026-05-04 13:55 40.08220 116.59831 129 ft 36 kts 353°
2026-05-04 13:55 40.08438 116.59796 129 ft 19 kts 352°
2026-05-04 13:56 40.08493 116.59668 129 ft 21 kts 265°
2026-05-04 13:56 40.08432 116.59557 129 ft 19 kts 177°
2026-05-04 13:56 40.07395 116.59721 131 ft 157 kts 173°
2026-05-04 13:57 40.06209 116.59926 788 ft 179 kts 172°
2026-05-04 13:57 40.05008 116.60160 2013 ft 180 kts 174°
2026-05-04 13:58 40.01358 116.60770 4523 ft 197 kts 178°
2026-05-04 13:58 39.98478 116.61129 5896 ft 226 kts 179°
2026-05-04 13:58 39.96864 116.61365 6536 ft 244 kts 178°
2026-05-04 13:59 39.95136 116.61635 7263 ft 259 kts 178°
2026-05-04 13:59 39.93334 116.61919 8111 ft 267 kts 178°
2026-05-04 13:59 39.89545 116.62510 9716 ft 284 kts 177°
2026-05-04 14:00 39.87574 116.62817 9847 ft 289 kts 177°
2026-05-04 14:00 39.83627 116.63435 9655 ft 283 kts 177°
2026-05-04 14:00 39.81675 116.63734 9634 ft 283 kts 177°
2026-05-04 14:01 39.79702 116.64023 9632 ft 283 kts 180°
2026-05-04 14:01 39.77817 116.63687 9639 ft 274 kts 206°
2026-05-04 14:01 39.74763 116.60927 9440 ft 263 kts 222°
2026-05-04 14:02 39.73349 116.59426 8913 ft 262 kts 230°
2026-05-04 14:02 39.72384 116.57496 8448 ft 253 kts 253°
2026-05-04 14:02 39.72166 116.55270 7814 ft 254 kts 278°
2026-05-04 14:02 39.72773 116.53148 7386 ft 251 kts 304°
2026-05-04 14:03 39.74034 116.51614 6914 ft 256 kts 326°
2026-05-04 14:03 39.75745 116.50857 6216 ft 271 kts 352°
2026-05-04 14:03 39.77616 116.51198 5680 ft 278 kts 21°
2026-05-04 14:03 39.79190 116.52667 5199 ft 278 kts 52°
2026-05-04 14:04 39.80842 116.57143 4170 ft 278 kts 70°
2026-05-04 14:04 39.81547 116.59470 3767 ft 276 kts 71°
2026-05-04 14:04 39.82238 116.61755 3569 ft 271 kts 71°
2026-05-04 14:05 39.82899 116.66383 3015 ft 255 kts 109°
2026-05-04 14:05 39.82151 116.68416 2990 ft 250 kts 131°
2026-05-04 14:05 39.81133 116.70207 2982 ft 242 kts 132°
2026-05-04 14:06 39.80142 116.71923 2988 ft 234 kts 133°
2026-05-04 14:06 39.79037 116.73407 2988 ft 227 kts 151°
2026-05-04 14:06 39.77645 116.74343 2983 ft 216 kts 165°
2026-05-04 14:06 39.76264 116.74889 2981 ft 202 kts 173°
2026-05-04 14:07 39.74909 116.75003 2983 ft 194 kts 190°
2026-05-04 14:07 39.73616 116.74532 2988 ft 192 kts 207°
2026-05-04 14:07 39.72525 116.73546 2986 ft 190 kts 224°
2026-05-04 14:07 39.71749 116.72174 2988 ft 190 kts 241°
2026-05-04 14:08 39.71351 116.70544 2987 ft 193 kts 258°
2026-05-04 14:08 39.71380 116.68805 2985 ft 198 kts 276°
2026-05-04 14:08 39.71873 116.67099 2985 ft 207 kts 295°
2026-05-04 14:08 39.72829 116.65655 2984 ft 214 kts 315°
2026-05-04 14:09 39.75714 116.64467 2980 ft 227 kts 356°
2026-05-04 14:09 39.77328 116.64455 2986 ft 230 kts 353°
2026-05-04 14:10 39.80505 116.64004 2989 ft 229 kts 348°
2026-05-04 14:10 39.82072 116.63719 2988 ft 229 kts 347°
2026-05-04 14:10 39.83638 116.63442 2988 ft 228 kts 348°
2026-05-04 14:10 39.85238 116.63199 2982 ft 229 kts 348°
2026-05-04 14:11 39.86816 116.62956 2980 ft 229 kts 348°
2026-05-04 14:11 39.89851 116.62479 2984 ft 206 kts 348°
2026-05-04 14:11 39.91246 116.62254 2895 ft 195 kts 348°
2026-05-04 14:12 39.92552 116.62046 2653 ft 183 kts 348°
2026-05-04 14:12 39.93782 116.61853 2426 ft 175 kts 348°
2026-05-04 14:12 39.96081 116.61492 2000 ft 163 kts 348°
2026-05-04 14:13 39.97223 116.61314 1778 ft 163 kts 349°
2026-05-04 14:13 39.98322 116.61146 1560 ft 159 kts 349°
2026-05-04 14:13 39.99426 116.60980 1324 ft 158 kts 349°
2026-05-04 14:13 40.00507 116.60805 1119 ft 158 kts 349°
2026-05-04 14:14 40.01599 116.60611 914 ft 158 kts 349°
2026-05-04 14:14 40.03784 116.60274 504 ft 158 kts 353°
2026-05-04 14:14 40.04867 116.60109 314 ft 155 kts 353°
2026-05-04 14:15 40.06852 116.59803 129 ft 113 kts 354°
2026-05-04 14:15 40.07641 116.59731 129 ft 32 kts 13°
2026-05-04 14:16 40.07813 116.59949 129 ft 13 kts 108°
2026-05-04 14:16 40.07741 116.60015 129 ft 12 kts 166°
2026-05-04 14:17 40.07613 116.60129 129 ft 11 kts 114°
2026-05-04 14:17 40.07576 116.60223 129 ft 11 kts 122°
2026-05-04 14:17 40.07486 116.60325 129 ft 5 kts 121°
2026-05-04 14:18 40.07487 116.60373 129 ft 5 kts 73°
2026-05-04 14:18 40.07503 116.60435 129 ft 0 kts 68°